Location: Sungai Anya
(2.6167°N, 114.0500°E)
Time: 16:17:49
(UTC+00:00)

Cosmos 1153 Rocket - Pass Details

Date: 02 June 2022
Orbit: 954 x 1005 km, 82.9° (Epoch: 03 July)

Event Time Altitude Azimuth Distance (km) Brightness Sun altitude
Rises 21:13:08 0° 2° (N) 3,718 7.9 -14.8°
Reaches altitude 10° 21:15:41 10° 4° (N) 2,770 7.2 -14.2°
Maximum altitude 21:22:01 69° 87° (E) 1,066 4.9 -12.8°
Drops below altitude 10° 21:28:20 10° 169° (S) 2,763 6.7 -11.4°
Sets 21:30:51 0° 172° (S) 3,707 7.4 -10.8°
